Time,TemperatureF,DewpointF,PressureIn,WindDirection,WindDirectionDegrees,WindSpeedMPH,WindSpeedGustMPH,Humidity,HourlyPrecipIn,Conditions,Clouds,dailyrainin,SoftwareType,DateUTC
2013-04-05 00:00:00,37.5,31.9,30.15,NNW,345,0.0,0.0,80,0.00,,,0.00,Wunderground v.1.15,2013-04-05 05:00:00,
2013-04-05 00:05:00,38.0,32.4,30.16,NNW,344,1.0,1.0,80,0.00,,,0.00,Wunderground v.1.15,2013-04-05 05:05:00,
2013-04-05 00:15:00,38.7,32.7,30.16,NNW,344,0.0,0.0,79,0.00,,,0.00,Wunderground v.1.15,2013-04-05 05:15:00,
2013-04-05 00:20:00,38.9,32.6,30.16,NNW,344,0.0,0.0,78,0.00,,,0.00,Wunderground v.1.15,2013-04-05 05:20:00,
2013-04-05 00:25:00,39.3,32.7,30.15,North,350,0.0,0.0,77,0.00,,,0.00,Wunderground v.1.15,2013-04-05 05:25:00,
2013-04-05 00:30:00,39.3,32.4,30.16,North,350,0.0,1.0,76,0.00,,,0.00,Wunderground v.1.15,2013-04-05 05:30:00,
2013-04-05 00:35:00,39.3,32.0,30.16,North,350,0.0,1.0,75,0.00,,,0.00,Wunderground v.1.15,2013-04-05 05:35:00,
2013-04-05 00:45:00,39.3,31.7,30.16,North,350,0.0,0.0,74,0.00,,,0.00,Wunderground v.1.15,2013-04-05 05:45:00,
2013-04-05 00:50:00,39.2,31.6,30.16,North,350,0.0,0.0,74,0.00,,,0.00,Wunderground v.1.15,2013-04-05 05:50:00,
2013-04-05 01:00:00,38.8,31.2,30.16,North,360,1.0,1.0,74,0.00,,,0.00,Wunderground v.1.15,2013-04-05 06:00:00,
2013-04-05 01:05:00,38.6,31.0,30.16,North,360,0.0,1.0,74,0.00,,,0.00,Wunderground v.1.15,2013-04-05 06:05:00,
2013-04-05 01:15:00,38.2,30.6,30.16,NNW,339,0.0,0.0,74,0.00,,,0.00,Wunderground v.1.15,2013-04-05 06:15:00,
2013-04-05 01:20:00,37.9,30.4,30.16,NNW,338,0.0,0.0,74,0.00,,,0.00,Wunderground v.1.15,2013-04-05 06:20:00,
2013-04-05 01:25:00,37.7,30.5,30.16,NNW,339,0.0,0.0,75,0.00,,,0.00,Wunderground v.1.15,2013-04-05 06:25:00,
2013-04-05 01:30:00,37.4,30.2,30.17,NNW,338,0.0,0.0,75,0.00,,,0.00,Wunderground v.1.15,2013-04-05 06:30:00,
2013-04-05 01:40:00,36.9,29.7,30.17,NNW,339,0.0,0.0,75,0.00,,,0.00,Wunderground v.1.15,2013-04-05 06:40:00,
2013-04-05 01:45:00,36.5,29.7,30.16,NNW,339,0.0,0.0,76,0.00,,,0.00,Wunderground v.1.15,2013-04-05 06:45:00,
2013-04-05 01:50:00,36.1,29.3,30.16,NNW,339,0.0,0.0,76,0.00,,,0.00,Wunderground v.1.15,2013-04-05 06:50:00,
2013-04-05 01:55:00,35.8,29.3,30.16,NNW,339,0.0,0.0,77,0.00,,,0.00,Wunderground v.1.15,2013-04-05 06:55:00,
2013-04-05 02:00:00,35.3,28.8,30.16,NNW,339,0.0,0.0,77,0.00,,,0.00,Wunderground v.1.15,2013-04-05 07:00:00,
2013-04-05 02:05:00,34.4,28.2,30.17,NNW,339,0.0,0.0,78,0.00,,,0.00,Wunderground v.1.15,2013-04-05 07:05:00,
2013-04-05 02:15:00,33.3,27.8,30.16,NNW,338,0.0,0.0,80,0.00,,,0.00,Wunderground v.1.15,2013-04-05 07:15:00,
2013-04-05 02:20:00,32.9,27.7,30.16,NNW,339,0.0,0.0,81,0.00,,,0.00,Wunderground v.1.15,2013-04-05 07:20:00,
2013-04-05 02:25:00,32.6,27.7,30.16,NNW,339,0.0,0.0,82,0.00,,,0.00,Wunderground v.1.15,2013-04-05 07:25:00,
2013-04-05 02:30:00,32.4,27.8,30.16,NNW,339,0.0,0.0,83,0.00,,,0.00,Wunderground v.1.15,2013-04-05 07:30:00,
2013-04-05 02:35:00,32.1,27.5,30.16,NNW,339,0.0,0.0,83,0.00,,,0.00,Wunderground v.1.15,2013-04-05 07:35:00,
2013-04-05 02:45:00,31.7,27.4,30.17,NNW,338,0.0,0.0,84,0.00,,,0.00,Wunderground v.1.15,2013-04-05 07:45:00,
2013-04-05 02:50:00,31.5,27.2,30.17,NNW,339,0.0,0.0,84,0.00,,,0.00,Wunderground v.1.15,2013-04-05 07:50:00,
2013-04-05 02:55:00,31.4,27.1,30.17,NNW,338,0.0,0.0,84,0.00,,,0.00,Wunderground v.1.15,2013-04-05 07:55:00,
2013-04-05 03:00:00,31.2,27.2,30.17,NNW,338,0.0,0.0,85,0.00,,,0.00,Wunderground v.1.15,2013-04-05 08:00:00,
2013-04-05 03:05:00,30.9,26.9,30.17,NNW,338,0.0,0.0,85,0.00,,,0.00,Wunderground v.1.15,2013-04-05 08:05:00,
2013-04-05 03:15:00,30.3,26.3,30.18,NNW,339,0.0,0.0,85,0.00,,,0.00,Wunderground v.1.15,2013-04-05 08:15:00,
2013-04-05 03:25:00,30.0,26.3,30.18,NNW,339,0.0,0.0,86,0.00,,,0.00,Wunderground v.1.15,2013-04-05 08:25:00,
2013-04-05 03:30:00,29.9,26.2,30.18,NNW,339,0.0,0.0,86,0.00,,,0.00,Wunderground v.1.15,2013-04-05 08:30:00,
2013-04-05 03:35:00,29.8,26.1,30.18,NNW,339,0.0,0.0,86,0.00,,,0.00,Wunderground v.1.15,2013-04-05 08:35:00,
2013-04-05 03:40:00,29.9,26.5,30.19,NNW,339,0.0,0.0,87,0.00,,,0.00,Wunderground v.1.15,2013-04-05 08:40:00,
2013-04-05 03:50:00,29.6,25.9,30.19,NNW,339,0.0,0.0,86,0.00,,,0.00,Wunderground v.1.15,2013-04-05 08:50:00,
2013-04-05 03:55:00,29.5,26.1,30.19,NNW,339,0.0,0.0,87,0.00,,,0.00,Wunderground v.1.15,2013-04-05 08:55:00,
2013-04-05 04:05:00,30.0,26.6,30.20,North,349,0.0,0.0,87,0.00,,,0.00,Wunderground v.1.15,2013-04-05 09:05:00,
2013-04-05 04:15:00,30.3,26.6,30.20,North,5,0.0,0.0,86,0.00,,,0.00,Wunderground v.1.15,2013-04-05 09:15:00,
2013-04-05 04:20:00,30.3,26.6,30.20,North,5,0.0,0.0,86,0.00,,,0.00,Wunderground v.1.15,2013-04-05 09:20:00,
2013-04-05 04:25:00,30.6,26.9,30.21,North,360,0.0,0.0,86,0.00,,,0.00,Wunderground v.1.15,2013-04-05 09:25:00,
2013-04-05 04:35:00,31.2,27.2,30.21,North,5,0.0,0.0,85,0.00,,,0.00,Wunderground v.1.15,2013-04-05 09:35:00,
2013-04-05 04:40:00,31.4,27.1,30.22,North,5,0.0,0.0,84,0.00,,,0.00,Wunderground v.1.15,2013-04-05 09:40:00,
2013-04-05 04:45:00,31.4,26.8,30.22,North,5,0.0,0.0,83,0.00,,,0.00,Wunderground v.1.15,2013-04-05 09:45:00,
2013-04-05 04:55:00,31.4,26.5,30.22,North,5,0.0,0.0,82,0.00,,,0.00,Wunderground v.1.15,2013-04-05 09:55:00,
2013-04-05 05:00:00,31.4,26.5,30.22,North,5,0.0,0.0,82,0.00,,,0.00,Wunderground v.1.15,2013-04-05 10:00:00,
2013-04-05 05:05:00,31.4,26.5,30.22,North,360,0.0,0.0,82,0.00,,,0.00,Wunderground v.1.15,2013-04-05 10:05:00,
2013-04-05 05:15:00,31.4,26.2,30.23,North,5,0.0,0.0,81,0.00,,,0.00,Wunderground v.1.15,2013-04-05 10:15:00,
2013-04-05 05:20:00,31.3,26.1,30.23,North,360,0.0,0.0,81,0.00,,,0.00,Wunderground v.1.15,2013-04-05 10:20:00,
2013-04-05 05:30:00,31.6,26.4,30.24,North,360,0.0,0.0,81,0.00,,,0.00,Wunderground v.1.15,2013-04-05 10:30:00,
2013-04-05 05:35:00,31.6,26.1,30.24,North,5,0.0,0.0,80,0.00,,,0.00,Wunderground v.1.15,2013-04-05 10:35:00,
2013-04-05 05:40:00,31.8,26.3,30.24,North,360,0.0,0.0,80,0.00,,,0.00,Wunderground v.1.15,2013-04-05 10:40:00,
2013-04-05 05:45:00,31.9,26.4,30.24,North,5,0.0,0.0,80,0.00,,,0.00,Wunderground v.1.15,2013-04-05 10:45:00,
2013-04-05 05:50:00,31.9,26.1,30.25,North,360,0.0,0.0,79,0.00,,,0.00,Wunderground v.1.15,2013-04-05 10:50:00,
2013-04-05 06:00:00,31.6,25.8,30.25,North,360,0.0,0.0,79,0.00,,,0.00,Wunderground v.1.15,2013-04-05 11:00:00,
2013-04-05 06:05:00,31.6,25.8,30.26,North,5,0.0,0.0,79,0.00,,,0.00,Wunderground v.1.15,2013-04-05 11:05:00,
2013-04-05 06:15:00,31.4,25.9,30.25,North,5,0.0,0.0,80,0.00,,,0.00,Wunderground v.1.15,2013-04-05 11:15:00,
2013-04-05 06:20:00,31.3,25.8,30.25,North,5,0.0,0.0,80,0.00,,,0.00,Wunderground v.1.15,2013-04-05 11:20:00,
2013-04-05 06:25:00,31.1,25.7,30.25,North,5,0.0,0.0,80,0.00,,,0.00,Wunderground v.1.15,2013-04-05 11:25:00,
2013-04-05 06:35:00,31.0,25.6,30.26,North,5,0.0,0.0,80,0.00,,,0.00,Wunderground v.1.15,2013-04-05 11:35:00,
2013-04-05 06:40:00,30.9,25.5,30.26,North,5,0.0,0.0,80,0.00,,,0.00,Wunderground v.1.15,2013-04-05 11:40:00,
2013-04-05 06:45:00,30.9,25.8,30.27,North,360,0.0,0.0,81,0.00,,,0.00,Wunderground v.1.15,2013-04-05 11:45:00,
2013-04-05 06:50:00,30.8,25.7,30.27,North,5,0.0,0.0,81,0.00,,,0.00,Wunderground v.1.15,2013-04-05 11:50:00,
2013-04-05 06:55:00,30.9,25.8,30.27,North,360,0.0,0.0,81,0.00,,,0.00,Wunderground v.1.15,2013-04-05 11:55:00,
2013-04-05 07:00:00,31.0,25.9,30.27,North,5,0.0,0.0,81,0.00,,,0.00,Wunderground v.1.15,2013-04-05 12:00:00,
2013-04-05 07:05:00,31.0,25.9,30.28,North,360,0.0,0.0,81,0.00,,,0.00,Wunderground v.1.15,2013-04-05 12:05:00,
2013-04-05 07:15:00,31.0,25.9,30.28,North,360,0.0,0.0,81,0.00,,,0.00,Wunderground v.1.15,2013-04-05 12:15:00,
2013-04-05 07:20:00,31.2,26.0,30.28,North,360,0.0,0.0,81,0.00,,,0.00,Wunderground v.1.15,2013-04-05 12:20:00,
2013-04-05 07:25:00,31.5,26.3,30.28,North,5,0.0,0.0,81,0.00,,,0.00,Wunderground v.1.15,2013-04-05 12:25:00,
2013-04-05 07:30:00,32.1,26.9,30.28,North,360,0.0,0.0,81,0.00,,,0.00,Wunderground v.1.15,2013-04-05 12:30:00,
2013-04-05 07:35:00,32.6,27.1,30.28,NNW,341,0.0,0.0,80,0.00,,,0.00,Wunderground v.1.15,2013-04-05 12:35:00,
2013-04-05 07:45:00,33.8,28.0,30.29,NE,37,0.0,0.0,79,0.00,,,0.00,Wunderground v.1.15,2013-04-05 12:45:00,
2013-04-05 07:50:00,34.4,28.2,30.29,NE,34,0.0,0.0,78,0.00,,,0.00,Wunderground v.1.15,2013-04-05 12:50:00,
2013-04-05 07:55:00,35.1,28.6,30.29,NNE,28,0.0,0.0,77,0.00,,,0.00,Wunderground v.1.15,2013-04-05 12:55:00,
2013-04-05 08:00:00,35.6,28.8,30.29,NNE,28,0.0,0.0,76,0.00,,,0.00,Wunderground v.1.15,2013-04-05 13:00:00,
2013-04-05 08:05:00,36.3,29.1,30.29,NE,42,0.0,0.0,75,0.00,,,0.00,Wunderground v.1.15,2013-04-05 13:05:00,
2013-04-05 08:15:00,37.5,30.0,30.30,NE,38,0.0,1.0,74,0.00,,,0.00,Wunderground v.1.15,2013-04-05 13:15:00,
2013-04-05 08:25:00,38.5,29.9,30.30,ENE,67,0.0,3.0,71,0.00,,,0.00,Wunderground v.1.15,2013-04-05 13:25:00,
2013-04-05 08:30:00,38.7,29.8,30.30,ENE,59,1.0,1.0,70,0.00,,,0.00,Wunderground v.1.15,2013-04-05 13:30:00,
2013-04-05 08:40:00,39.7,30.0,30.30,East,80,1.0,1.0,68,0.00,,,0.00,Wunderground v.1.15,2013-04-05 13:40:00,
2013-04-05 08:45:00,39.9,29.8,30.30,ESE,119,1.0,7.0,67,0.00,,,0.00,Wunderground v.1.15,2013-04-05 13:45:00,
2013-04-05 08:50:00,40.1,29.3,30.30,East,92,2.0,2.0,65,0.00,,,0.00,Wunderground v.1.15,2013-04-05 13:50:00,
2013-04-05 08:55:00,40.4,29.2,30.30,East,82,1.0,2.0,64,0.00,,,0.00,Wunderground v.1.15,2013-04-05 13:55:00,
2013-04-05 09:00:00,40.6,28.6,30.30,East,88,1.0,1.0,62,0.00,,,0.00,Wunderground v.1.15,2013-04-05 14:00:00,
2013-04-05 09:05:00,40.8,28.4,30.31,NE,44,2.0,5.0,61,0.00,,,0.00,Wunderground v.1.15,2013-04-05 14:05:00,
2013-04-05 09:15:00,40.6,27.8,30.30,ESE,121,2.0,4.0,60,0.00,,,0.00,Wunderground v.1.15,2013-04-05 14:15:00,
2013-04-05 09:20:00,40.8,28.0,30.31,East,82,2.0,5.0,60,0.00,,,0.00,Wunderground v.1.15,2013-04-05 14:20:00,
2013-04-05 09:25:00,40.6,27.8,30.31,NNE,30,2.0,5.0,60,0.00,,,0.00,Wunderground v.1.15,2013-04-05 14:25:00,
2013-04-05 09:35:00,41.3,27.6,30.31,East,88,1.0,1.0,58,0.00,,,0.00,Wunderground v.1.15,2013-04-05 14:35:00,
2013-04-05 09:40:00,41.5,27.4,30.31,North,355,2.0,4.0,57,0.00,,,0.00,Wunderground v.1.15,2013-04-05 14:40:00,
2013-04-05 09:45:00,41.6,27.5,30.31,ESE,109,2.0,4.0,57,0.00,,,0.00,Wunderground v.1.15,2013-04-05 14:45:00,
2013-04-05 09:50:00,42.0,27.0,30.32,East,96,2.0,2.0,55,0.00,,,0.00,Wunderground v.1.15,2013-04-05 14:50:00,
2013-04-05 10:00:00,42.1,26.2,30.32,ESE,115,3.0,6.0,53,0.00,,,0.00,Wunderground v.1.15,2013-04-05 15:00:00,
2013-04-05 10:05:00,42.3,25.9,30.32,North,350,2.0,6.0,52,0.00,,,0.00,Wunderground v.1.15,2013-04-05 15:05:00,
2013-04-05 10:15:00,42.8,27.3,30.32,ENE,72,2.0,2.0,54,0.00,,,0.00,Wunderground v.1.15,2013-04-05 15:15:00,
2013-04-05 10:25:00,42.8,26.8,30.32,ESE,115,2.0,2.0,53,0.00,,,0.00,Wunderground v.1.15,2013-04-05 15:25:00,
2013-04-05 10:30:00,42.7,28.1,30.32,SSE,157,3.0,7.0,56,0.00,,,0.00,Wunderground v.1.15,2013-04-05 15:30:00,
2013-04-05 10:35:00,42.9,28.3,30.32,East,87,3.0,7.0,56,0.00,,,0.00,Wunderground v.1.15,2013-04-05 15:35:00,
2013-04-05 10:40:00,43.3,28.6,30.32,SE,132,3.0,11.0,56,0.00,,,0.00,Wunderground v.1.15,2013-04-05 15:40:00,
2013-04-05 10:50:00,43.7,27.2,30.33,ESE,123,3.0,4.0,52,0.00,,,0.00,Wunderground v.1.15,2013-04-05 15:50:00,
2013-04-05 10:55:00,43.9,27.9,30.33,East,92,2.0,4.0,53,0.00,,,0.00,Wunderground v.1.15,2013-04-05 15:55:00,
2013-04-05 11:00:00,44.3,27.3,30.33,SE,146,2.0,2.0,51,0.00,,,0.00,Wunderground v.1.15,2013-04-05 16:00:00,
2013-04-05 11:05:00,44.8,27.3,30.32,NNE,30,1.0,2.0,50,0.00,,,0.00,Wunderground v.1.15,2013-04-05 16:05:00,
2013-04-05 11:15:00,45.0,27.9,30.32,ESE,114,2.0,2.0,51,0.00,,,0.00,Wunderground v.1.15,2013-04-05 16:15:00,
2013-04-05 11:25:00,45.2,28.6,30.32,ESE,122,2.0,6.0,52,0.00,,,0.00,Wunderground v.1.15,2013-04-05 16:25:00,
2013-04-05 11:30:00,45.0,27.9,30.32,SE,145,3.0,3.0,51,0.00,,,0.00,Wunderground v.1.15,2013-04-05 16:30:00,
2013-04-05 11:35:00,45.3,28.7,30.31,East,86,3.0,3.0,52,0.00,,,0.00,Wunderground v.1.15,2013-04-05 16:35:00,
2013-04-05 11:40:00,45.8,28.2,30.32,ENE,76,2.0,2.0,50,0.00,,,0.00,Wunderground v.1.15,2013-04-05 16:40:00,
2013-04-05 11:50:00,45.3,27.7,30.31,ESE,105,3.0,4.0,50,0.00,,,0.00,Wunderground v.1.15,2013-04-05 16:50:00,
2013-04-05 11:55:00,45.6,29.4,30.31,SSE,153,3.0,7.0,53,0.00,,,0.00,Wunderground v.1.15,2013-04-05 16:55:00,
2013-04-05 12:00:00,45.9,28.8,30.31,East,87,3.0,4.0,51,0.00,,,0.00,Wunderground v.1.15,2013-04-05 17:00:00,
2013-04-05 12:05:00,45.8,28.7,30.31,SSE,161,5.0,6.0,51,0.00,,,0.00,Wunderground v.1.15,2013-04-05 17:05:00,
2013-04-05 12:15:00,46.1,29.4,30.29,ESE,114,6.0,11.0,52,0.00,,,0.00,Wunderground v.1.15,2013-04-05 17:15:00,
2013-04-05 12:20:00,46.3,28.7,30.30,ESE,117,4.0,4.0,50,0.00,,,0.00,Wunderground v.1.15,2013-04-05 17:20:00,
2013-04-05 12:25:00,46.4,28.8,30.29,SSE,153,3.0,4.0,50,0.00,,,0.00,Wunderground v.1.15,2013-04-05 17:25:00,
2013-04-05 12:35:00,47.0,28.8,30.29,East,94,3.0,4.0,49,0.00,,,0.00,Wunderground v.1.15,2013-04-05 17:35:00,
2013-04-05 12:40:00,46.9,27.2,30.29,SE,128,3.0,5.0,46,0.00,,,0.00,Wunderground v.1.15,2013-04-05 17:40:00,
2013-04-05 12:45:00,47.1,29.4,30.29,ESE,109,4.0,5.0,50,0.00,,,0.00,Wunderground v.1.15,2013-04-05 17:45:00,
2013-04-05 12:50:00,47.1,26.3,30.28,East,94,4.0,4.0,44,0.00,,,0.00,Wunderground v.1.15,2013-04-05 17:50:00,
2013-04-05 13:00:00,48.3,28.5,30.28,East,101,1.0,1.0,46,0.00,,,0.00,Wunderground v.1.15,2013-04-05 18:00:00,
2013-04-05 13:05:00,48.4,29.1,30.28,SSE,155,3.0,9.0,47,0.00,,,0.00,Wunderground v.1.15,2013-04-05 18:05:00,
2013-04-05 13:15:00,48.7,29.4,30.27,East,80,3.0,4.0,47,0.00,,,0.00,Wunderground v.1.15,2013-04-05 18:15:00,
2013-04-05 13:25:00,49.2,29.8,30.27,SSE,159,2.0,2.0,47,0.00,,,0.00,Wunderground v.1.15,2013-04-05 18:25:00,
2013-04-05 13:30:00,48.1,28.3,30.27,SE,136,4.0,4.0,46,0.00,,,0.00,Wunderground v.1.15,2013-04-05 18:30:00,
2013-04-05 13:35:00,48.5,28.1,30.26,East,90,4.0,4.0,45,0.00,,,0.00,Wunderground v.1.15,2013-04-05 18:35:00,
2013-04-05 13:45:00,49.4,28.4,30.26,East,90,2.0,2.0,44,0.00,,,0.00,Wunderground v.1.15,2013-04-05 18:45:00,
2013-04-05 13:50:00,49.7,31.3,30.26,SSE,157,3.0,4.0,49,0.00,,,0.00,Wunderground v.1.15,2013-04-05 18:50:00,
2013-04-05 14:00:00,49.0,27.5,30.26,SSE,149,2.0,2.0,43,0.00,,,0.00,Wunderground v.1.15,2013-04-05 19:00:00,
2013-04-05 14:05:00,50.0,30.5,30.25,East,88,1.0,3.0,47,0.00,,,0.00,Wunderground v.1.15,2013-04-05 19:05:00,
2013-04-05 14:15:00,51.2,29.4,30.26,East,80,1.0,2.0,43,0.00,,,0.00,Wunderground v.1.15,2013-04-05 19:15:00,
2013-04-05 14:20:00,51.7,28.1,30.25,SE,144,1.0,5.0,40,0.00,,,0.00,Wunderground v.1.15,2013-04-05 19:20:00,
2013-04-05 14:25:00,51.4,27.9,30.25,ESE,105,1.0,5.0,40,0.00,,,0.00,Wunderground v.1.15,2013-04-05 19:25:00,
2013-04-05 14:35:00,51.2,28.3,30.25,ESE,112,1.0,1.0,41,0.00,,,0.00,Wunderground v.1.15,2013-04-05 19:35:00,
2013-04-05 14:45:00,52.4,26.9,30.25,NW,326,2.0,2.0,37,0.00,,,0.00,Wunderground v.1.15,2013-04-05 19:45:00,
2013-04-05 14:55:00,52.3,27.4,30.24,ESE,105,2.0,5.0,38,0.00,,,0.00,Wunderground v.1.15,2013-04-05 19:55:00,
2013-04-05 15:00:00,52.7,26.5,30.24,SE,127,2.0,2.0,36,0.00,,,0.00,Wunderground v.1.15,2013-04-05 20:00:00,
2013-04-05 15:05:00,52.6,27.7,30.24,NNE,22,2.0,2.0,38,0.00,,,0.00,Wunderground v.1.15,2013-04-05 20:05:00,
2013-04-05 15:15:00,53.7,28.0,30.23,ESE,109,2.0,7.0,37,0.00,,,0.00,Wunderground v.1.15,2013-04-05 20:15:00,
2013-04-05 15:20:00,52.8,27.9,30.23,SE,144,3.0,6.0,38,0.00,,,0.00,Wunderground v.1.15,2013-04-05 20:20:00,
2013-04-05 15:25:00,51.6,26.8,30.23,SSE,157,4.0,6.0,38,0.00,,,0.00,Wunderground v.1.15,2013-04-05 20:25:00,
2013-04-05 15:30:00,51.0,26.3,30.23,SE,137,4.0,4.0,38,0.00,,,0.00,Wunderground v.1.15,2013-04-05 20:30:00,
2013-04-05 15:40:00,50.7,25.3,30.22,West,276,3.0,3.0,37,0.00,,,0.00,Wunderground v.1.15,2013-04-05 20:40:00,
2013-04-05 15:45:00,51.5,26.7,30.22,SE,138,2.0,6.0,38,0.00,,,0.00,Wunderground v.1.15,2013-04-05 20:45:00,
2013-04-05 15:50:00,50.6,26.5,30.22,SE,140,2.0,2.0,39,0.00,,,0.00,Wunderground v.1.15,2013-04-05 20:50:00,
2013-04-05 16:00:00,50.1,27.9,30.22,ESE,115,1.0,2.0,42,0.00,,,0.00,Wunderground v.1.15,2013-04-05 21:00:00,
2013-04-05 16:05:00,50.2,27.4,30.22,ENE,61,1.0,2.0,41,0.00,,,0.00,Wunderground v.1.15,2013-04-05 21:05:00,
2013-04-05 16:15:00,50.4,27.0,30.22,SSE,165,2.0,5.0,40,0.00,,,0.00,Wunderground v.1.15,2013-04-05 21:15:00,
2013-04-05 16:20:00,50.0,27.8,30.22,SE,134,3.0,4.0,42,0.00,,,0.00,Wunderground v.1.15,2013-04-05 21:20:00,
2013-04-05 16:25:00,49.7,26.9,30.22,SE,134,3.0,4.0,41,0.00,,,0.00,Wunderground v.1.15,2013-04-05 21:25:00,
2013-04-05 16:35:00,49.5,26.1,30.22,SE,142,1.0,2.0,40,0.00,,,0.00,Wunderground v.1.15,2013-04-05 21:35:00,
2013-04-05 16:40:00,49.5,26.7,30.22,SE,144,1.0,1.0,41,0.00,,,0.00,Wunderground v.1.15,2013-04-05 21:40:00,
2013-04-05 16:45:00,49.5,26.7,30.22,SE,144,1.0,2.0,41,0.00,,,0.00,Wunderground v.1.15,2013-04-05 21:45:00,
2013-04-05 16:55:00,49.5,26.7,30.22,SE,142,1.0,1.0,41,0.00,,,0.00,Wunderground v.1.15,2013-04-05 21:55:00,
2013-04-05 17:00:00,49.5,25.5,30.22,SE,143,1.0,1.0,39,0.00,,,0.00,Wunderground v.1.15,2013-04-05 22:00:00,
2013-04-05 17:05:00,49.4,25.4,30.22,SE,142,1.0,1.0,39,0.00,,,0.00,Wunderground v.1.15,2013-04-05 22:05:00,
2013-04-05 17:15:00,49.4,26.7,30.22,SE,142,1.0,1.0,41,0.00,,,0.00,Wunderground v.1.15,2013-04-05 22:15:00,
2013-04-05 17:20:00,49.4,27.2,30.22,SE,143,1.0,1.0,42,0.00,,,0.00,Wunderground v.1.15,2013-04-05 22:20:00,
2013-04-05 17:30:00,49.4,26.1,30.22,ESE,106,0.0,1.0,40,0.00,,,0.00,Wunderground v.1.15,2013-04-05 22:30:00,
2013-04-05 17:35:00,49.5,26.1,30.22,ESE,106,1.0,1.0,40,0.00,,,0.00,Wunderground v.1.15,2013-04-05 22:35:00,
2013-04-05 17:40:00,49.5,25.5,30.22,ESE,106,0.0,0.0,39,0.00,,,0.00,Wunderground v.1.15,2013-04-05 22:40:00,
2013-04-05 17:45:00,49.6,27.4,30.22,ESE,106,0.0,0.0,42,0.00,,,0.00,Wunderground v.1.15,2013-04-05 22:45:00,
2013-04-05 17:50:00,49.5,26.1,30.22,ESE,106,0.0,0.0,40,0.00,,,0.00,Wunderground v.1.15,2013-04-05 22:50:00,
2013-04-05 18:00:00,49.7,26.3,30.21,ESE,106,1.0,1.0,40,0.00,,,0.00,Wunderground v.1.15,2013-04-05 23:00:00,
2013-04-05 18:05:00,49.8,27.6,30.21,ESE,106,1.0,1.0,42,0.00,,,0.00,Wunderground v.1.15,2013-04-05 23:05:00,
2013-04-05 18:15:00,49.6,28.6,30.21,SE,140,1.0,2.0,44,0.00,,,0.00,Wunderground v.1.15,2013-04-05 23:15:00,
2013-04-05 18:20:00,49.5,29.0,30.21,ESE,115,2.0,2.0,45,0.00,,,0.00,Wunderground v.1.15,2013-04-05 23:20:00,
2013-04-05 18:25:00,49.3,28.8,30.21,SE,129,1.0,2.0,45,0.00,,,0.00,Wunderground v.1.15,2013-04-05 23:25:00,
2013-04-05 18:35:00,49.1,29.7,30.21,SE,128,0.0,1.0,47,0.00,,,0.00,Wunderground v.1.15,2013-04-05 23:35:00,
2013-04-05 18:45:00,48.8,30.5,30.21,SE,130,0.0,0.0,49,0.00,,,0.00,Wunderground v.1.15,2013-04-05 23:45:00,
2013-04-05 18:50:00,48.7,30.4,30.21,SE,130,0.0,0.0,49,0.00,,,0.00,Wunderground v.1.15,2013-04-05 23:50:00,
2013-04-05 18:55:00,48.6,29.8,30.20,ESE,102,0.0,0.0,48,0.00,,,0.00,Wunderground v.1.15,2013-04-05 23:55:00,
2013-04-05 19:05:00,48.4,29.6,30.20,ESE,105,0.0,0.0,48,0.00,,,0.00,Wunderground v.1.15,2013-04-06 00:05:00,
2013-04-05 19:15:00,48.2,29.9,30.19,South,173,1.0,1.0,49,0.00,,,0.00,Wunderground v.1.15,2013-04-06 00:15:00,
2013-04-05 19:20:00,48.1,29.8,30.19,ESE,102,1.0,1.0,49,0.00,,,0.00,Wunderground v.1.15,2013-04-06 00:20:00,
2013-04-05 19:25:00,48.0,30.2,30.18,ESE,103,0.0,1.0,50,0.00,,,0.00,Wunderground v.1.15,2013-04-06 00:25:00,
2013-04-05 19:35:00,47.6,30.8,30.16,SE,128,1.0,1.0,52,0.00,,,0.00,Wunderground v.1.15,2013-04-06 00:35:00,
2013-04-05 19:40:00,47.4,30.6,30.16,SE,124,1.0,1.0,52,0.00,,,0.00,Wunderground v.1.15,2013-04-06 00:40:00,
2013-04-05 19:50:00,47.1,30.8,30.15,SE,146,1.0,5.0,53,0.00,,,0.00,Wunderground v.1.15,2013-04-06 00:50:00,
2013-04-05 19:55:00,47.0,30.7,30.16,SE,130,1.0,5.0,53,0.00,,,0.00,Wunderground v.1.15,2013-04-06 00:55:00,
2013-04-05 20:05:00,46.9,30.6,30.16,SSE,157,2.0,2.0,53,0.00,,,0.00,Wunderground v.1.15,2013-04-06 01:05:00,
2013-04-05 20:15:00,46.8,30.6,30.17,SE,139,0.0,1.0,53,0.00,,,0.00,Wunderground v.1.15,2013-04-06 01:15:00,
2013-04-05 20:20:00,46.7,31.4,30.17,ESE,118,0.0,0.0,55,0.00,,,0.00,Wunderground v.1.15,2013-04-06 01:20:00,
2013-04-05 20:30:00,46.3,31.4,30.18,ESE,118,0.0,0.0,56,0.00,,,0.00,Wunderground v.1.15,2013-04-06 01:30:00,
2013-04-05 20:35:00,46.1,31.7,30.17,ESE,122,0.0,0.0,57,0.00,,,0.00,Wunderground v.1.15,2013-04-06 01:35:00,
2013-04-05 20:40:00,45.9,31.9,30.17,ESE,122,0.0,0.0,58,0.00,,,0.00,Wunderground v.1.15,2013-04-06 01:40:00,
2013-04-05 20:45:00,45.7,31.8,30.17,ESE,122,0.0,1.0,58,0.00,,,0.00,Wunderground v.1.15,2013-04-06 01:45:00,
2013-04-05 20:55:00,45.5,32.0,30.18,ESE,118,0.0,0.0,59,0.00,,,0.00,Wunderground v.1.15,2013-04-06 01:55:00,
2013-04-05 21:00:00,45.4,32.3,30.19,SE,129,1.0,1.0,60,0.00,,,0.00,Wunderground v.1.15,2013-04-06 02:00:00,
2013-04-05 21:05:00,45.2,32.5,30.18,SE,130,1.0,1.0,61,0.00,,,0.00,Wunderground v.1.15,2013-04-06 02:05:00,
2013-04-05 21:15:00,44.8,32.6,30.18,SE,144,1.0,7.0,62,0.00,,,0.00,Wunderground v.1.15,2013-04-06 02:15:00,
2013-04-05 21:25:00,44.3,32.9,30.18,SE,136,2.0,5.0,64,0.00,,,0.00,Wunderground v.1.15,2013-04-06 02:25:00,
2013-04-05 21:30:00,44.0,33.0,30.18,SSE,148,2.0,5.0,65,0.00,,,0.00,Wunderground v.1.15,2013-04-06 02:30:00,
2013-04-05 21:35:00,43.6,32.2,30.18,SSE,155,3.0,6.0,64,0.00,,,0.00,Wunderground v.1.15,2013-04-06 02:35:00,
2013-04-05 21:45:00,42.9,31.2,30.18,ESE,106,6.0,6.0,63,0.00,,,0.00,Wunderground v.1.15,2013-04-06 02:45:00,
2013-04-05 21:55:00,41.8,30.1,30.18,SE,146,6.0,6.0,63,0.00,,,0.00,Wunderground v.1.15,2013-04-06 02:55:00,
2013-04-05 22:00:00,41.4,29.7,30.19,SE,125,5.0,5.0,63,0.00,,,0.00,Wunderground v.1.15,2013-04-06 03:00:00,
2013-04-05 22:05:00,40.9,29.3,30.19,SE,142,5.0,8.0,63,0.00,,,0.00,Wunderground v.1.15,2013-04-06 03:05:00,
2013-04-05 22:15:00,40.3,29.5,30.18,ESE,103,6.0,6.0,65,0.00,,,0.00,Wunderground v.1.15,2013-04-06 03:15:00,
2013-04-05 22:20:00,40.1,29.6,30.18,East,101,5.0,5.0,66,0.00,,,0.00,Wunderground v.1.15,2013-04-06 03:20:00,
2013-04-05 22:30:00,39.8,29.0,30.19,SE,141,4.0,4.0,65,0.00,,,0.00,Wunderground v.1.15,2013-04-06 03:30:00,
2013-04-05 22:35:00,39.5,29.4,30.17,SE,145,4.0,9.0,67,0.00,,,0.00,Wunderground v.1.15,2013-04-06 03:35:00,
2013-04-05 22:40:00,39.2,29.5,30.15,SE,141,6.0,12.0,68,0.00,,,0.00,Wunderground v.1.15,2013-04-06 03:40:00,
2013-04-05 22:45:00,39.1,29.1,30.19,SE,129,7.0,12.0,67,0.00,,,0.00,Wunderground v.1.15,2013-04-06 03:45:00,
2013-04-05 22:50:00,39.1,28.3,30.19,SE,130,4.0,4.0,65,0.00,,,0.00,Wunderground v.1.15,2013-04-06 03:50:00,
2013-04-05 22:55:00,38.9,26.6,30.18,SSE,151,5.0,10.0,61,0.00,,,0.00,Wunderground v.1.15,2013-04-06 03:55:00,
2013-04-05 23:05:00,38.6,24.2,30.17,ESE,109,9.0,9.0,56,0.00,,,0.00,Wunderground v.1.15,2013-04-06 04:05:00,
2013-04-05 23:10:00,38.6,22.9,30.18,SE,141,8.0,10.0,53,0.00,,,0.00,Wunderground v.1.15,2013-04-06 04:10:00,
2013-04-05 23:15:00,38.6,22.5,30.18,SE,131,7.0,10.0,52,0.00,,,0.00,Wunderground v.1.15,2013-04-06 04:15:00,
2013-04-05 23:20:00,38.5,22.4,30.18,SE,143,7.0,7.0,52,0.00,,,0.00,Wunderground v.1.15,2013-04-06 04:20:00,
2013-04-05 23:25:00,38.4,22.3,30.18,SE,130,5.0,7.0,52,0.00,,,0.00,Wunderground v.1.15,2013-04-06 04:25:00,
2013-04-05 23:30:00,38.3,22.2,30.18,ESE,121,5.0,5.0,52,0.00,,,0.00,Wunderground v.1.15,2013-04-06 04:30:00,
2013-04-05 23:40:00,38.1,22.5,30.18,ESE,109,3.0,4.0,53,0.00,,,0.00,Wunderground v.1.15,2013-04-06 04:40:00,
2013-04-05 23:45:00,38.0,22.4,30.18,ESE,122,2.0,4.0,53,0.00,,,0.00,Wunderground v.1.15,2013-04-06 04:45:00,
2013-04-05 23:50:00,37.9,22.7,30.18,ESE,117,3.0,3.0,54,0.00,,,0.00,Wunderground v.1.15,2013-04-06 04:50:00,
2013-04-05 23:55:00,37.7,22.5,30.18,SE,138,2.0,4.0,54,0.00,,,0.00,Wunderground v.1.15,2013-04-06 04:55:00,